Vertical_Velocity
2 3 0 0 9 10 -2 -6 8 25 2 7 3 5 1 -5 -1 5 10 -1 -6 13 8 10 5 7 -2 -2 4 1 3 0 -5 12 -2 -3 -3 -5 1 1 2 6 -6
8 4 2 7 8 8 1 -3 2 24 12 8 2 7 11 4 8 1 -10 11 -23 18 19 7 2 3 7 1 -2 1 1 -2 2 -3 -5 1 -4 -5 2 4 -6 -4 -11
4 2 3 1 -3 0 -2 4 -2 12 32 12 3 11 4 5 3 4 2 2 11 6 8 6 8 3 6 4 10 3 0 6 4 -2 -7 -14 -8 -1 1 2 5 -1 -6
0 -1 -2 -10 6 -11 -9 1 -8 -1 33 11 10 11 7 1 7 6 -1 -1 -2 -15 18 24 4 19 -1 1 7 5 4 2 7 7 8 -7 14 9 2 -5 -5 -4 -9
-1 -2 -5 -3 4 -1 -1 -5 -10 15 14 -2 27 8 12 3 -4 6 4 -0 -22 -6 0 -12 43 4 50 10 5 3 21 -14 11 2 6 18 1 2 12 1 0 -1 -6
-5 -5 -1 2 -7 -2 -11 -1 2 2 3 12 6 4 8 -9 16 6 -6 -4 4 -1 19 2 7 -47 -21 34 14 5 -8 3 3 1 -3 7 -2 -0 -0 4 0 4 -1
-5 -3 -2 2 4 3 12 6 -6 -1 -1 -6 -3 -2 -4 11 2 2 8 -6 -14 -6 -10 -8 -11 -27 -27 -16 3 -4 7 -5 5 10 -5 -3 1 2 -1 2 4 2 -2
2 1 2 6 1 3 7 -3 -3 1 -2 -7 -7 6 5 9 8 7 23 -18 -19 -6 -4 -2 4 8 -5 -4 -17 -6 0 -7 -7 -9 8 -3 -4 -3 -1 -5 1 1 0
3 5 1 3 1 6 2 3 1 3 -9 -10 -8 -1 1 -3 5 14 -9 -4 -4 2 6 1 6 -1 -4 -3 4 2 0 -1 -7 -7 -5 3 -1 6 2 1 -1 -0 -0
-2 3 3 1 2 0 -2 -4 -4 -4 -9 -6 6 7 7 6 2 -0 -1 -5 -2 -3 -5 -2 -1 2 3 0 -2 -3 -4 -3 4 9 8 6 1 -5 -4 2 -7 -1 -1
-0 0 2 2 -2 2 4 -4 -4 -8 -8 -1 5 2 3 2 -9 -3 -3 -1 1 2 -4 -2 1 -7 -9 -9 -5 -4 -4 -1 3 4 1 2 3 -4 2 2 2 -2 -3
-1 1 -0 -1 -1 -5 -4 -1 -1 -0 -0 -2 -3 -4 -1 -10 -5 -4 -6 -6 -6 -4 -4 -1 2 -2 3 2 5 5 2 4 1 -0 1 -1 -6 -3 1 -1 -1 -0 -1
1 -2 -2 0 1 1 -2 -5 -5 2 2 1 3 6 0 4 -1 4 -1 3 -11 -10 -7 -5 -6 -3 -2 -1 -4 -4 -5 -7 -5 -5 -4 -1 -1 3 1 -1 1 -1 1
0 -1 1 -0 2 3 4 -1 -1 1 3 6 4 4 5 7 5 4 2 4 12 5 2 -3 -6 -3 -5 -3 -3 -2 -1 -2 -3 -2 -2 -2 -3 -0 0 -1 -2 -2 0
-5 -2 1 -2 -1 0 -1 -3 2 3 3 5 0 -5 -4 -2 4 11 8 2 -1 2 4 7 5 1 2 0 2 0 -2 -1 2 -1 -0 -1 1 -1 -2 -3 -0 2 -0
2 -1 -2 -3 -1 -1 -1 -5 -4 -2 -2 2 -2 -3 2 11 11 6 -1 -3 -0 -1 -7 -8 -7 -4 -3 -2 -2 -3 -3 -4 -4 -0 -3 -2 -3 1 -4 -1 0 -2 -2
-5 -4 -4 -4 -7 -9 -8 -6 -0 4 -1 -2 -4 -4 -9 -11 -6 -2 1 4 2 0 -2 -1 -2 -2 -3 -4 -4 -0 -2 3 -1 2 -0 -1 -2 -0 -3 -2 -1 2 -1
-4 -5 -5 -4 0 0 -2 -4 -1 -3 -9 -10 -8 -11 -11 -7 -6 -10 -8 4 -1 -3 -6 -6 -4 -1 -3 -5 -5 -4 -1 -0 1 0 -0 -0 -2 -1 -0 -2 2 -2 -2
0 1 2 3 1 -1 -2 -2 1 1 -2 -3 -3 -2 -4 -3 -1 -1 -3 -4 -7 -10 -6 -5 -4 -2 -0 -3 -4 -3 -2 -2 -2 -5 -2 -1 -1 -4 -1 -3 -0 0 1
1 3 3 2 1 -0 3 2 2 0 -3 -4 -6 -5 -7 -9 -11 -14 -13 -7 -1 5 10 14 12 10 5 2 3 0 3 3 -5 -4 1 -0 -0 1 3 -2 -0 0 -1
-1 -3 0 1 1 -0 1 2 4 5 3 3 7 7 7 2 -1 -1 -3 -3 -4 -4 -8 -10 -8 -7 -6 -3 -2 -1 -2 -0 -1 -1 -1 0 0 0 -1 2 2 2 2
-2 0 -2 -5 -1 1 2 1 0 1 3 1 -1 -1 2 5 5 3 2 1 3 2 1 -2 -4 -6 -4 -3 -3 -1 -1 -1 0 2 2 1 -0 -1 -2 -1 -1 0 -0
-1 -2 -1 3 2 1 0 -1 -1 0 -1 -0 -1 -1 -1 -1 -0 0 0 2 1 2 3 0 -1 -1 -2 -3 -4 -3 -2 -2 -2 -1 0 2 2 3 3 2 1 -1 0
-1 -1 0 -1 -2 -2 -2 -1 -2 -1 -1 -2 -2 -2 -2 -1 -2 -1 -0 1 -1 -1 4 3 2 -1 -0 0 -1 -1 -1 -2 -2 -2 -2 -1 -2 0 1 0 1 0 -2
-0 -2 -1 -1 -1 -2 -1 -0 -1 -1 -1 -2 -3 -2 -1 -1 -2 -3 -2 -1 -1 -3 1 1 2 2 0 -1 -2 -1 -1 0 -1 -0 0 1 -0 0 1 -0 -1 0 1
-1 -2 -2 -2 -2 -1 -2 -2 -2 -2 -3 -3 -2 -2 -3 -2 -1 -2 -2 -2 -3 -1 0 2 4 2 2 -0 -0 -1 -1 -1 -1 1 0 0 1 1 1 1 1 -1 -1
Height
1420 1409 1401 1391 1379 1368 1364 1361 1357 1355 1356 1357 1360 1363 1365 1366 1366 1370 1375 1382 1393 1396 1401 1402 1409 1416 1421 1427 1429 1432 1435 1437 1440 1442 1446 1450 1452 1453 1454 1454 1455 1456 1458
1424 1414 1404 1394 1382 1372 1366 1365 1361 1357 1356 1354 1357 1358 1358 1362 1364 1360 1366 1374 1382 1387 1391 1396 1401 1410 1413 1418 1421 1424 1427 1429 1431 1436 1439 1441 1443 1447 1448 1447 1447 1449 1451
1429 1419 1409 1398 1390 1379 1373 1373 1369 1364 1358 1355 1356 1355 1352 1354 1359 1361 1361 1361 1376 1391 1386 1389 1397 1402 1406 1408 1412 1417 1419 1420 1422 1423 1431 1431 1434 1438 1440 1439 1440 1442 1443
1435 1426 1417 1408 1401 1397 1389 1381 1376 1373 1367 1357 1359 1357 1356 1356 1359 1363 1365 1374 1383 1390 1382 1376 1382 1394 1397 1401 1405 1409 1408 1410 1414 1418 1422 1423 1428 1428 1428 1430 1430 1432 1433
1444 1436 1429 1423 1414 1407 1400 1396 1380 1377 1368 1367 1363 1362 1362 1359 1365 1366 1367 1372 1381 1395 1395 1386 1381 1396 1387 1393 1400 1396 1396 1403 1405 1413 1412 1414 1418 1419 1417 1420 1420 1422 1423
1452 1446 1440 1434 1428 1421 1414 1405 1398 1387 1379 1374 1369 1372 1371 1375 1377 1375 1372 1382 1391 1402 1397 1394 1398 1405 1420 1391 1395 1398 1405 1400 1400 1408 1407 1409 1408 1410 1411 1412 1413 1413 1416
1460 1453 1447 1441 1435 1429 1423 1415 1410 1403 1399 1394 1387 1386 1386 1387 1385 1384 1387 1384 1388 1401 1399 1399 1398 1399 1396 1399 1397 1396 1403 1398 1399 1400 1399 1404 1405 1404 1406 1408 1406 1407 1408
1465 1459 1452 1447 1441 1436 1431 1426 1421 1414 1408 1410 1407 1403 1401 1398 1399 1399 1385 1388 1406 1412 1410 1412 1412 1406 1400 1399 1396 1405 1400 1397 1401 1401 1404 1404 1402 1404 1403 1402 1402 1399 1401
1467 1462 1456 1450 1445 1440 1433 1429 1428 1426 1425 1424 1421 1416 1410 1407 1405 1395 1393 1402 1410 1412 1410 1410 1404 1402 1404 1408 1409 1405 1401 1402 1404 1407 1407 1404 1403 1400 1397 1397 1396 1396 1394
1469 1466 1462 1456 1450 1447 1443 1441 1439 1437 1436 1435 1430 1423 1418 1409 1407 1404 1400 1407 1410 1408 1409 1410 1409 1410 1408 1408 1408 1407 1405 1410 1411 1410 1405 1402 1397 1396 1398 1395 1394 1393 1391
1474 1470 1466 1462 1458 1454 1451 1449 1447 1445 1443 1441 1437 1432 1423 1415 1413 1412 1412 1415 1415 1413 1415 1418 1411 1410 1412 1412 1411 1411 1410 1411 1410 1405 1401 1399 1394 1395 1396 1393 1391 1388 1390
1478 1474 1470 1466 1464 1461 1457 1454 1451 1449 1447 1443 1436 1428 1423 1421 1424 1421 1422 1422 1422 1421 1420 1420 1414 1416 1417 1416 1414 1412 1410 1408 1405 1401 1398 1393 1393 1395 1394 1391 1389 1387 1386
1480 1478 1474 1471 1468 1466 1463 1459 1456 1453 1448 1443 1439 1433 1433 1430 1427 1427 1426 1423 1423 1424 1424 1420 1419 1418 1415 1414 1410 1407 1404 1404 1403 1401 1399 1396 1395 1393 1390 1390 1387 1386 1383
1482 1479 1476 1474 1471 1467 1465 1463 1461 1457 1453 1448 1442 1441 1440 1437 1435 1432 1430 1430 1426 1423 1421 1420 1421 1418 1416 1413 1411 1408 1407 1404 1404 1401 1399 1397 1394 1393 1389 1386 1383 1384 1382
1485 1483 1480 1477 1474 1471 1467 1464 1460 1458 1455 1449 1445 1443 1441 1439 1436 1435 1431 1426 1424 1423 1422 1420 1415 1411 1408 1406 1406 1405 1404 1404 1401 1400 1397 1393 1391 1389 1387 1385 1383 1382 1378
1488 1485 1482 1479 1476 1472 1470 1468 1465 1463 1460 1455 1452 1450 1449 1445 1438 1433 1428 1427 1423 1419 1416 1413 1409 1409 1407 1405 1403 1402 1401 1403 1403 1400 1397 1393 1393 1386 1384 1384 1380 1379 1378
1490 1488 1487 1485 1481 1478 1474 1470 1466 1466 1464 1460 1456 1452 1449 1446 1447 1444 1442 1437 1432 1427 1422 1418 1416 1414 1413 1410 1409 1407 1404 1403 1400 1398 1394 1390 1387 1385 1384 1381 1378 1377 1374
1492 1491 1489 1487 1484 1481 1478 1475 1471 1467 1463 1459 1456 1452 1448 1446 1443 1442 1439 1434 1430 1427 1424 1424 1422 1418 1414 1411 1408 1407 1404 1400 1396 1391 1388 1386 1386 1385 1381 1378 1378 1374 1375
1492 1490 1488 1485 1483 1480 1479 1476 1474 1470 1466 1462 1460 1456 1452 1449 1445 1442 1440 1438 1435 1436 1432 1429 1424 1421 1415 1411 1410 1406 1403 1396 1390 1387 1388 1385 1385 1382 1380 1379 1380 1376 1375
1490 1488 1485 1482 1479 1478 1476 1473 1470 1467 1464 1462 1459 1456 1453 1451 1448 1445 1444 1441 1438 1435 1430 1426 1421 1418 1414 1413 1408 1404 1400 1393 1389 1391 1389 1385 1386 1384 1380 1377 1379 1374 1369
1487 1485 1482 1480 1476 1474 1471 1468 1466 1463 1461 1459 1457 1455 1452 1449 1447 1444 1440 1437 1435 1431 1427 1425 1422 1418 1415 1411 1406 1401 1397 1394 1389 1389 1386 1384 1381 1379 1378 1378 1376 1373 1370
1486 1483 1480 1477 1474 1471 1468 1465 1462 1460 1457 1453 1450 1448 1446 1443 1440 1438 1435 1433 1430 1427 1425 1422 1419 1417 1413 1409 1405 1401 1397 1393 1390 1387 1383 1379 1377 1376 1376 1375 1374 1371 1367
1484 1481 1478 1474 1471 1469 1466 1463 1460 1457 1453 1450 1446 1443 1440 1438 1435 1432 1429 1427 1425 1423 1421 1419 1416 1414 1411 1408 1405 1401 1396 1392 1388 1384 1380 1378 1376 1375 1374 1372 1369 1366 1364
1481 1478 1475 1472 1469 1466 1463 1459 1456 1453 1449 1445 1442 1439 1436 1433 1430 1428 1425 1423 1421 1419 1418 1416 1414 1412 1409 1406 1403 1399 1395 1391 1386 1382 1378 1375 1374 1372 1370 1369 1367 1364 1363
1477 1475 1472 1469 1465 1462 1459 1456 1452 1449 1445 1441 1438 1435 1432 1429 1426 1423 1421 1419 1416 1414 1412 1411 1410 1408 1405 1403 1400 1396 1392 1388 1384 1381 1377 1375 1372 1371 1369 1367 1365 1363 1360
1475 1472 1468 1465 1462 1459 1455 1451 1448 1444 1441 1437 1434 1431 1427 1424 1421 1418 1415 1413 1411 1408 1406 1405 1404 1404 1401 1399 1396 1393 1389 1386 1382 1379 1375 1373 1371 1368 1366 1364 1362 1361 1360